Location: Hofstätten
(49.2795°N, 7.8607°E)
Time: 23:26:41
(UTC+00:00)

Daily predictions for brighter satellites

Satellite Brightness Start Highest point End
(mag) Time Altitude Azimuth Time Altitude Azimuth Time Altitude Azimuth
Cosmos 1437 Rocket 4.2 17:28:21 10° SE 17:30:36 15° E 17:32:51 10° NE
ASTEX 1 3.6 17:26:20 10° NNE 17:31:15 54° E 17:36:07 10° S
HJ-1C 4.4 17:30:14 10° SE 17:32:48 24° ENE 17:35:23 10° NNE
Cosmos 1741 Rocket 4.1 17:27:59 10° S 17:33:09 59° ESE 17:38:20 10° NNE
CZ-4C R/B 3.8 17:30:19 10° N 17:34:36 74° WNW 17:38:40 10° SSW
Cosmos 1626 3.5 17:32:41 10° NNW 17:36:09 43° W 17:39:36 10° SSW
USA 267 3.4 17:29:57 10° SE 17:36:32 85° SW 17:43:08 10° WNW
Cosmos 1814 Rocket 4.2 17:31:31 10° NNW 17:36:41 53° ENE 17:41:45 10° SE
SL-4 R/B 2.4 17:32:44 10° WNW 17:37:06 77° SSW 17:41:44 10° ESE
Cosmos 2084 Rocket 4.2 17:36:22 10° NNW 17:39:48 31° NE 17:43:20 10° E
Cosmos 1805 3.2 17:38:03 10° S 17:41:55 71° E 17:45:48 10° NNE
Cosmos 2227 4.3 17:36:52 10° NNW 17:42:27 58° ENE 17:47:59 10° SE
Cosmos 1242 Rocket 2.6 17:39:37 10° SSW 17:43:10 83° WNW 17:46:44 10° N
Okean-O 4.3 17:43:07 10° E 17:45:54 17° ENE 17:48:40 10° NNE
ISS -2.0 17:43:55 10° W 17:46:55 30° SW 17:49:54 10° SSE
Cosmos 1697 Rocket 3.6 17:42:49 10° SW 17:48:18 52° NW 17:53:49 10° NNE
CZ-4 R/B 2.1 17:44:33 10° SE 17:48:24 36° ENE 17:52:14 10° N
BREEZE M DEB (TANK) 4.2 17:44:46 10° SSW 17:50:26 21° SSE 17:53:03 12° ESE
SL-14 R/B 3.4 17:49:31 10° N 17:53:30 85° W 17:57:30 10° S
Cosmos 1908 Rocket 4.1 17:49:41 10° SSE 17:53:37 35° E 17:57:35 10° NNE
IRIDIUM 103 4.5 17:49:04 10° SSE 17:54:05 51° E 17:59:08 10° NNE
Meteor 2-21 4.4 17:48:17 10° S 17:54:12 60° E 18:00:09 10° NNE
OBJECT-B 2.2 17:54:14 13° ENE 17:54:14 13° ENE 17:55:29 10° NE
MOS 1-B 4.3 17:48:39 10° SSE 17:54:27 79° ENE 18:00:17 10° NNW
Cosmos 1733 3.4 17:51:41 10° SSW 17:55:25 73° W 17:59:10 10° N
Cosmos 2360 Rocket 3.6 17:52:45 10° SE 17:55:50 15° E 17:58:56 10° ENE
Cosmos 1809 Rocket 4.4 17:52:45 10° S 17:58:48 79° E 18:04:56 10° NNE
Cosmos 1766 3.3 17:57:55 10° S 18:01:46 57° E 18:05:39 10° NNE
Cosmos 1674 Rocket 3.6 17:58:18 10° N 18:02:44 86° W 18:07:10 10° S
Meteor 2-10 4.2 17:57:43 10° S 18:03:21 87° E 18:08:50 10° NNE
NOSS 7 (E) 4.4 18:01:14 10° NW 18:04:25 67° NE 18:07:50 13° SE
Cosmos 1025 Rocket 4.0 18:01:40 10° NNE 18:05:18 26° ENE 18:07:56 15° ESE
YAOGAN 1 2.5 18:02:17 10° SSE 18:06:36 76° ENE 18:10:56 10° N
ATLAS 2AS CENTAUR R/B 4.4 18:00:57 10° WNW 18:07:05 26° N 18:12:57 10° NE
Cosmos 968 Rocket 3.8 18:03:29 10° S 18:08:26 43° ESE 18:13:22 10° NE
Okean O Rocket 1.5 18:06:06 10° SSE 18:10:26 69° ENE 18:14:50 10° N
IRIDIUM 106 4.3 18:07:09 10° S 18:12:20 72° E 18:17:33 10° N
Lacrosse 4 Rocket 2.6 18:10:08 10° SSE 18:13:12 21° ESE 18:13:56 20° E
SKYMED 2 4.4 18:09:13 10° N 18:13:30 55° WNW 18:17:43 10° SSW
Meteor 2-5 Rocket 3.8 18:09:37 10° N 18:15:05 55° ENE 18:20:30 10° SSE
Nadezhda 4 Rocket 4.0 18:09:25 10° S 18:15:43 73° E 18:22:01 10° NNE
Meteor 1-15 Rocket 4.2 18:12:01 10° S 18:17:27 58° E 18:22:55 10° NNE
CSL-04 Rocket 4.2 18:13:27 13° SE 18:17:47 38° ENE 18:22:46 10° N
Cosmos 2285 Rocket 4.1 18:15:13 10° NNW 18:21:37 85° WSW 18:28:01 10° SSE
USA 186 2.6 18:22:41 28° E 18:23:32 32° ENE 18:26:34 10° N
Cosmos 1726 2.7 18:20:21 10° SSW 18:23:57 59° WNW 18:27:35 10° N
Cosmos 2322 Rocket 2.7 18:19:08 10° S 18:24:18 37° ESE 18:29:30 10° NE
Cosmos 1470 2.9 18:24:54 10° SSE 18:28:35 47° E 18:32:17 10° NNE
CZ-4B R/B 3.6 18:23:39 10° S 18:29:00 65° WSW 18:34:30 10° NNW
Cosmos 1980 Rocket 3.2 18:24:57 10° SW 18:30:25 48° NW 18:35:52 10° NNE
Cosmos 1975 Rocket 3.3 18:26:14 10° N 18:30:31 46° ENE 18:33:08 21° SE
ARGOS Delta rocket 4.3 18:25:33 10° N 18:30:50 73° WNW 18:35:48 10° SSW
Cosmos 2292 Rocket 3.4 18:33:43 10° S 18:38:47 79° E 18:42:39 10° NNE
USA 215 3.5 18:36:55 10° ENE 18:43:24 67° NNW 18:49:52 10° WSW
IRS-1C Rocket 4.2 18:43:42 25° SE 18:46:39 54° ENE 18:51:46 10° N
Cosmos 1844 Rocket 2.6 18:44:17 10° NNW 18:49:58 70° ENE 18:52:59 29° SE
Cosmos 2278 4.4 18:48:12 10° SW 18:53:46 56° NW 18:59:22 10° NNE
SL-16 R/B 2.1 18:48:46 10° SSW 18:54:26 82° ESE 19:00:09 10° NNE
Landsat 5 3.6 18:50:55 10° NNE 18:55:23 60° ESE 18:59:46 10° S
Cosmos 1092 Rocket 3.9 18:50:55 10° S 18:57:14 84° E 19:03:30 10° N
Resurs 01 Rocket 2.6 19:01:19 30° NE 19:01:19 30° NE 19:04:38 10° N
Cosmos 836 Rocket 4.4 18:56:01 10° NNW 19:01:22 76° ENE 19:03:34 36° SE
SJ-6B 2.6 19:02:07 51° SSE 19:03:01 90° NNE 19:06:51 10° NNW
Cosmos 2278 Rocket 3.7 19:00:43 10° N 19:04:53 20° NE 19:05:41 20° NE
H-2A R/B 3.4 19:07:12 31° NNE 19:07:12 31° NNE 19:09:44 10° N
Cosmos 1437 Rocket 3.8 19:02:47 10° SSW 19:06:22 44° WNW 19:09:59 10° N
Meteor 1-24 Rocket 4.0 19:05:08 10° NNW 19:10:23 63° W 19:15:41 10° S
Resurs 1-3 3.4 19:11:26 61° SE 19:12:08 76° ENE 19:16:32 10° N
SL-4 R/B 4.0 19:12:33 10° W 19:16:13 24° SW 19:17:52 20° S
MetOp-A 4.1 19:17:19 40° NNE 19:17:19 40° NNE 19:20:12 10° N
Cosmos 921 Rocket 4.3 19:12:32 10° N 19:15:35 28° NE 19:15:35 28° NE
Cosmos 2084 Rocket 4.1 19:15:37 10° NW 19:19:16 42° SW 19:19:51 39° SSW
Okean-O 2.8 19:20:29 43° S 19:21:51 72° WSW 19:26:17 10° NNW
CZ-4 R/B 3.6 19:19:54 10° SSW 19:23:23 25° W 19:26:54 10° NW
Cosmos 1486 Rocket 3.9 19:18:30 10° SSW 19:23:49 75° ESE 19:29:09 10° NNE
OBJECT-B 3.1 19:24:55 19° WNW 19:24:55 19° WNW 19:26:06 10° NW
Cosmos 1844 3.7 19:18:54 10° NNW 19:24:29 79° WSW 19:26:12 46° SSE
IGS 5A 3.9 19:24:38 41° SSW 19:25:46 57° W 19:29:52 10° NNW
DNEPR-1 R/B 3.8 19:23:19 10° SW 19:28:04 83° SE 19:30:36 33° NE
S3M 4.0 19:23:24 10° N 19:29:35 58° ENE 19:30:10 55° E
Cosmos 773 Rocket 4.0 19:25:40 10° NNW 19:30:58 64° ENE 19:31:00 64° ENE
Cosmos 1300 Rocket 3.6 19:30:15 55° SW 19:31:06 74° W 19:35:28 10° N
Meteor 1-21 Rocket 4.3 19:26:14 10° N 19:31:34 56° ENE 19:31:34 56° ENE
Cosmos 2360 Rocket 2.0 19:33:20 10° SSW 19:38:58 86° ESE 19:44:40 10° NNE
Cosmos 1025 Rocket 4.5 19:39:02 10° NNW 19:42:58 35° W 19:44:51 24° SW
Cosmos 158 Rocket 4.4 19:41:02 10° NNW 19:44:48 48° NNE 19:44:48 48° NNE
Cosmos 1417 Rocket 4.3 19:43:51 10° N 19:50:01 87° W 19:51:03 64° S
Lacrosse 4 Rocket 2.6 19:47:29 10° SW 19:50:17 37° W 19:50:17 37° W
ATLAS 2AS CENTAUR R/B 3.8 19:53:42 10° NW 20:00:14 33° NNE 20:01:35 31° NE
MOS 1 4.2 20:01:33 80° WSW 20:01:33 80° WSW 20:07:16 10° NNW
SPOT 1/Viking Rocket 3.9 20:07:54 62° NW 20:07:54 62° NW 20:12:21 10° NNW
Cosmos 2322 Rocket 3.2 20:02:49 10° SW 20:08:16 44° NW 20:13:45 10° NNE
NOSS 3-4 (A) 3.7 20:04:56 10° NW 20:11:47 79° NE 20:12:04 78° ENE
NOSS 3-4 (C) 3.7 20:05:02 10° NW 20:11:53 78° NE 20:12:10 77° ENE
Ariane Rocket 3.9 20:16:26 44° NNW 20:16:26 44° NNW 20:19:52 10° NNW
USA 215 4.0 20:24:15 38° NNE 20:25:56 46° N 20:32:05 10° WNW
Aureole 1 Rocket 4.3 20:18:52 10° SSW 20:26:06 66° WNW 20:31:46 10° NNE
USA 281 3.7 20:27:40 49° NNE 20:27:40 49° NNE 20:33:02 10° NNW
Resurs 01 Rocket 3.7 20:38:53 25° NW 20:38:53 25° NW 20:41:12 10° NNW
Cosmos 2315 Rocket 4.4 20:32:43 10° NNW 20:37:56 60° NNW 20:37:56 60° NNW
SL-16 R/B 4.3 20:34:42 10° W 20:39:15 24° NW 20:43:48 10° NNE
Terra 4.1 20:42:43 18° N 20:42:43 18° N 20:44:02 10° N
Cosmos 1943 Rocket 4.0 20:36:19 10° NNW 20:38:59 23° N 20:38:59 23° N
Cosmos 2278 Rocket 3.4 20:44:11 10° NNW 20:47:32 37° NNW 20:47:32 37° NNW
Cosmos 2369 Rocket 4.4 20:56:22 10° N 20:58:48 18° NNE 20:58:48 18° NNE
Cosmos 2333 Rocket 4.3 21:18:31 20° N 21:18:31 20° N 21:20:30 10° NNE
Cosmos 2360 Rocket 4.3 21:19:18 10° W 21:23:43 23° NW 21:28:08 10° N
ATLAS 2AS CENTAUR R/B 4.0 21:44:58 10° NW 21:49:00 36° NW 21:49:00 36° NW
